Terminal Aerodrome Forecast
Issued by NWS Wichita, KS

Home | Current Version | Previous Version | Graphics & Text | Print | Product List | Glossary On
Versions: 1 2 3 4 5 6 7 8 9 10 11 12 13 14 15 16 17
961
FTUS43 KICT 200521
TAFICT
TAF
KICT 200521Z 2006/2106 12008KT P6SM FEW250
     FM201400 14011KT P6SM SCT250
     FM201700 14015G23KT P6SM SCT250
     FM201900 14016G24KT P6SM BKN250
     FM210000 12010KT P6SM BKN150=

USA.gov is the U.S. government's official web portal to all federal, state and local government web resources and services.